Flag for U.S.A. Weather past 2 weeks in Fort Bragg, California, U.S.A.

Now
75 °F

Sunny.


Feels Like: 77 °F
Forecast: 56 / 66 °F
Wind: 10 mph from Northwest

Location: Ukiah Municipal

Current Time: Sep 4, 2015 at 2:43:29 PM

Latest Report: Sep 4, 2015 at 1:56 PM


Visibility: 10 mi

Pressure: 29.83 "Hg

Humidity: 30%

Dew point: 41 °F

Location of Fort BraggLocation

Historic Weather in Fort Bragg — Graph

°F

Fort Bragg temperature yesterday

Maximum temperature yesterday: 81 °F (at 2:56 PM)
Minimum temperature yesterday: 53 °F (at 4:56 AM)
Average temperature yesterday: 65 °F

Past Weeks' High & Low Weather Summary

 TemperatureHumidityPressure
High96 °F (Aug 27, 1:56 PM)97% (Aug 21, 5:56 AM)30.06 "Hg (Aug 21, 5:56 AM)
Low48 °F (Sep 4, 3:56 AM)14% (Aug 26, 12:56 PM)29.74 "Hg (Aug 21, 4:56 PM)
Average70 °F54%29.90 "Hg
* Reported Aug 20 12:56 PM — Sep 4 12:56 PM, Fort Bragg, Weather by CustomWeather, © 2015

Note: Actual official high and low records may vary slightly from our data, if they occured in-between our weather recording intervals... More about our weather records

Advertising

Fort Bragg weather history for previous 24 hours

 ConditionsComfort  
Time TempWeatherWind HumidityBarometerVisibility
12:56 PM
Fri, Sep 4
74 °FSunny.13 mph31%29.84 "Hg10 mi
11:56 AM72 °FSunny.10 mph30%29.86 "Hg10 mi
10:56 AM69 °FSunny.12 mph33%29.87 "Hg10 mi
9:56 AM65 °FSunny.9 mph42%29.87 "Hg10 mi
8:56 AM60 °FSunny.5 mph53%29.88 "Hg10 mi
7:56 AM50 °FSunny.No wind74%29.88 "Hg10 mi
6:56 AM50 °FClear.No wind71%29.86 "Hg10 mi
5:56 AM50 °FClear.3 mph71%29.85 "Hg10 mi
4:56 AM50 °FClear.3 mph71%29.84 "Hg10 mi
3:56 AM48 °FClear.No wind77%29.83 "Hg10 mi
2:56 AM49 °FClear.No wind74%29.83 "Hg10 mi
1:56 AM54 °FClear.No wind64%29.83 "Hg10 mi
12:56 AM57 °FClear.No wind58%29.84 "Hg10 mi
11:56 PM
Thu, Sep 3
57 °FClear.3 mph58%29.83 "Hg10 mi
10:56 PM59 °FClear.No wind54%29.83 "Hg10 mi
9:56 PM60 °FClear.3 mph49%29.83 "Hg10 mi
8:56 PM67 °FClear.5 mph39%29.82 "Hg10 mi
7:56 PM69 °FSunny.8 mph36%29.80 "Hg10 mi
6:56 PM73 °FSunny.5 mph32%29.80 "Hg10 mi
5:56 PM76 °FSunny.7 mph31%29.80 "Hg10 mi
4:56 PM78 °FSunny.12 mph29%29.79 "Hg10 mi
3:56 PM80 °FSunny.8 mph29%29.80 "Hg10 mi
2:56 PM81 °FSunny.10 mph24%29.81 "Hg10 mi
Weather by CustomWeather, © 2015

See weather overviewHow to use our weather pages